• In Netherlands
  • List of Countries
  • For 7 days
  • Water Temperature
  • Satellite Maps
  • Weather Map
  • Weather Widgets
  • user-avatar
    Login

    Hourly Weather Annaba

    Today, 20 September, Wednesday

    Time Temperature Precipitation Wind Pressure Humidity
    00:00 +21°C° 0.3 mm 3 mps 763 mmHg 74%
    01:00 +20°C° 0 mm 3 mps 763 mmHg 76%
    02:00 +20°C° 0.4 mm 3 mps 763 mmHg 77%
    03:00 +20°C° 0.4 mm 3 mps 763 mmHg 78%
    04:00 +20°C° 0.4 mm 3 mps 762 mmHg 79%
    05:00 +20°C° 0.2 mm 4 mps 763 mmHg 79%
    06:00 +20°C° 0.2 mm 4 mps 763 mmHg 79%
    07:00 +20°C° 0 mm 4 mps 763 mmHg 77%
    08:00 +21°C° 0.2 mm 4 mps 763 mmHg 72%
    09:00 +22°C° 0.2 mm 4 mps 764 mmHg 68%
    10:00 +22°C° 0.2 mm 4 mps 764 mmHg 64%
    11:00 +23°C° 0 mm 5 mps 764 mmHg 58%
    12:00 +25°C° 0 mm 5 mps 764 mmHg 53%
    13:00 +27°C° 0 mm 5 mps 764 mmHg 45%
    14:00 +26°C° 0 mm 5 mps 763 mmHg 44%
    15:00 +26°C° 0 mm 5 mps 763 mmHg 44%
    16:00 +26°C° 0 mm 4 mps 763 mmHg 43%
    17:00 +25°C° 0 mm 4 mps 763 mmHg 47%
    18:00 +24°C° 0 mm 3 mps 763 mmHg 51%
    19:00 +23°C° 0 mm 2 mps 763 mmHg 55%
    20:00 +21°C° 0 mm 2 mps 763 mmHg 58%
    21:00 +21°C° 0 mm 2 mps 764 mmHg 60%
    22:00 +21°C° 0 mm 1 mps 764 mmHg 63%
    23:00 +21°C° 0 mm 1 mps 764 mmHg 63%

    Tomorrow, 21 September, Thursday

    Time Temperature Precipitation Wind Pressure Humidity
    00:00 +21°C° 0 mm 1 mps 764 mmHg 64%
    01:00 +21°C° 0 mm 1 mps 764 mmHg 65%
    02:00 +21°C° 0 mm 1 mps 763 mmHg 65%
    03:00 +20°C° 0 mm 1 mps 763 mmHg 66%
    04:00 +20°C° 0 mm 1 mps 763 mmHg 66%
    05:00 +19°C° 0 mm 2 mps 763 mmHg 66%
    06:00 +19°C° 0 mm 2 mps 763 mmHg 65%
    07:00 +20°C° 0 mm 2 mps 763 mmHg 65%
    08:00 +23°C° 0 mm 2 mps 763 mmHg 58%
    09:00 +25°C° 0 mm 2 mps 763 mmHg 51%
    10:00 +27°C° 0 mm 2 mps 763 mmHg 45%
    11:00 +28°C° 0 mm 3 mps 763 mmHg 41%
    12:00 +30°C° 0 mm 3 mps 762 mmHg 38%
    13:00 +32°C° 0 mm 4 mps 762 mmHg 34%
    14:00 +32°C° 0 mm 4 mps 762 mmHg 36%
    15:00 +32°C° 0 mm 5 mps 761 mmHg 37%
    16:00 +30°C° 0 mm 6 mps 761 mmHg 39%
    17:00 +29°C° 0 mm 5 mps 761 mmHg 46%
    18:00 +27°C° 0 mm 5 mps 761 mmHg 53%
    19:00 +25°C° 0 mm 4 mps 761 mmHg 60%
    20:00 +25°C° 0 mm 4 mps 762 mmHg 62%
    21:00 +24°C° 0 mm 3 mps 762 mmHg 64%
    22:00 +24°C° 0 mm 3 mps 762 mmHg 66%
    23:00 +24°C° 0 mm 3 mps 762 mmHg 65%

    Day after tomorrow, 22 September, Friday

    Time Temperature Precipitation Wind Pressure Humidity
    00:00 +24°C° 0 mm 3 mps 762 mmHg 64%
    01:00 +24°C° 0 mm 2 mps 762 mmHg 63%
    02:00 +23°C° 0 mm 2 mps 761 mmHg 61%
    03:00 +23°C° 0 mm 2 mps 761 mmHg 60%
    04:00 +23°C° 0 mm 2 mps 761 mmHg 59%
    05:00 +23°C° 0 mm 2 mps 761 mmHg 57%
    06:00 +23°C° 0 mm 2 mps 761 mmHg 56%
    07:00 +24°C° 0 mm 2 mps 761 mmHg 54%
    08:00 +26°C° 0 mm 2 mps 761 mmHg 48%
    09:00 +29°C° 0 mm 2 mps 762 mmHg 41%
    10:00 +31°C° 0 mm 2 mps 762 mmHg 34%
    11:00 +33°C° 0 mm 3 mps 761 mmHg 33%
    12:00 +34°C° 0 mm 3 mps 761 mmHg 31%
    13:00 +35°C° 0 mm 4 mps 761 mmHg 29%
    14:00 +35°C° 0 mm 4 mps 761 mmHg 31%
    15:00 +35°C° 0 mm 5 mps 760 mmHg 33%
    16:00 +34°C° 0 mm 5 mps 760 mmHg 35%
    17:00 +32°C° 0 mm 5 mps 760 mmHg 42%
    18:00 +30°C° 0 mm 5 mps 761 mmHg 50%
    19:00 +28°C° 0 mm 4 mps 761 mmHg 57%
    20:00 +27°C° 0 mm 4 mps 761 mmHg 61%
    21:00 +26°C° 0 mm 3 mps 762 mmHg 66%
    22:00 +26°C° 0 mm 2 mps 762 mmHg 71%
    23:00 +26°C° 0 mm 2 mps 762 mmHg 71%

    23 September, Saturday

    Time Temperature Precipitation Wind Pressure Humidity
    00:00 +25°C° 0 mm 2 mps 762 mmHg 71%
    01:00 +25°C° 0 mm 2 mps 762 mmHg 71%
    02:00 +25°C° 0 mm 2 mps 762 mmHg 69%
    03:00 +25°C° 0 mm 2 mps 762 mmHg 67%
    04:00 +25°C° 0 mm 2 mps 761 mmHg 65%
    05:00 +25°C° 0 mm 2 mps 761 mmHg 64%
    06:00 +26°C° 0 mm 2 mps 761 mmHg 62%
    07:00 +26°C° 0 mm 2 mps 761 mmHg 61%
    08:00 +27°C° 0 mm 2 mps 762 mmHg 55%
    09:00 +29°C° 0 mm 2 mps 762 mmHg 50%
    10:00 +31°C° 0 mm 1 mps 762 mmHg 45%
    11:00 +31°C° 0 mm 2 mps 762 mmHg 43%
    12:00 +33°C° 0 mm 3 mps 762 mmHg 41%
    13:00 +34°C° 0 mm 4 mps 762 mmHg 39%
    14:00 +34°C° 0 mm 3 mps 761 mmHg 38%
    15:00 +34°C° 0 mm 3 mps 761 mmHg 37%
    16:00 +34°C° 0 mm 3 mps 761 mmHg 37%
    17:00 +31°C° 0.2 mm 2 mps 761 mmHg 41%
    18:00 +30°C° 0.2 mm 2 mps 761 mmHg 45%
    19:00 +29°C° 0.2 mm 2 mps 761 mmHg 50%
    20:00 +28°C° 0 mm 2 mps 761 mmHg 52%
    21:00 +28°C° 0 mm 2 mps 761 mmHg 54%
    22:00 +27°C° 0 mm 3 mps 761 mmHg 57%
    23:00 +27°C° 0.1 mm 3 mps 761 mmHg 59%

    24 September, Sunday

    Time Temperature Precipitation Wind Pressure Humidity
    00:00 +26°C° 0.1 mm 2 mps 761 mmHg 60%
    01:00 +26°C° 0.1 mm 2 mps 761 mmHg 62%
    02:00 +26°C° 0.3 mm 2 mps 760 mmHg 63%
    03:00 +25°C° 0.3 mm 2 mps 760 mmHg 64%
    04:00 +25°C° 0.3 mm 2 mps 760 mmHg 65%
    05:00 +25°C° 0.3 mm 2 mps 760 mmHg 66%
    06:00 +25°C° 0.3 mm 2 mps 760 mmHg 67%
    07:00 +25°C° 0.3 mm 2 mps 761 mmHg 68%
    08:00 +27°C° 0.1 mm 2 mps 761 mmHg 61%
    09:00 +29°C° 0.1 mm 1 mps 761 mmHg 55%
    10:00 +30°C° 0.1 mm 1 mps 761 mmHg 48%
    11:00 +31°C° 0 mm 2 mps 761 mmHg 46%
    12:00 +33°C° 0 mm 3 mps 761 mmHg 45%
    13:00 +33°C° 0 mm 4 mps 761 mmHg 43%
    14:00 +33°C° 0 mm 4 mps 761 mmHg 48%
    15:00 +32°C° 0 mm 5 mps 761 mmHg 52%
    16:00 +30°C° 0 mm 5 mps 761 mmHg 57%
    17:00 +29°C° 0 mm 4 mps 761 mmHg 63%
    18:00 +27°C° 0 mm 3 mps 762 mmHg 70%
    19:00 +26°C° 0 mm 2 mps 762 mmHg 77%
    20:00 +25°C° 0 mm 1 mps 762 mmHg 80%
    21:00 +25°C° 0 mm 1 mps 763 mmHg 84%
    22:00 +24°C° 0 mm 1 mps 763 mmHg 88%
    23:00 +24°C° 0 mm 1 mps 763 mmHg 88%

    25 September, Monday

    Time Temperature Precipitation Wind Pressure Humidity
    00:00 +22°C° 0 mm 0 mps 763 mmHg 89%
    01:00 +21°C° 0 mm 0 mps 762 mmHg 90%
    02:00 +21°C° 0 mm 0 mps 762 mmHg 90%
    03:00 +21°C° 0 mm 0 mps 762 mmHg 90%
    04:00 +20°C° 0 mm 0 mps 762 mmHg 90%
    05:00 +22°C° 0 mm 1 mps 762 mmHg 89%
    06:00 +22°C° 0 mm 1 mps 762 mmHg 87%
    07:00 +22°C° 0 mm 1 mps 762 mmHg 85%
    08:00 +24°C° 0 mm 1 mps 762 mmHg 74%
    09:00 +26°C° 0 mm 1 mps 762 mmHg 63%
    10:00 +28°C° 0 mm 1 mps 762 mmHg 52%
    11:00 +29°C° 0 mm 2 mps 762 mmHg 48%
    12:00 +29°C° 0 mm 2 mps 762 mmHg 43%
    13:00 +30°C° 0 mm 3 mps 761 mmHg 39%
    14:00 +30°C° 0 mm 3 mps 761 mmHg 40%
    15:00 +30°C° 0 mm 3 mps 761 mmHg 41%
    16:00 +30°C° 0 mm 4 mps 761 mmHg 42%
    17:00 +28°C° 0 mm 3 mps 761 mmHg 48%
    18:00 +27°C° 0 mm 2 mps 761 mmHg 54%
    19:00 +25°C° 0 mm 2 mps 761 mmHg 60%
    20:00 +24°C° 0 mm 2 mps 761 mmHg 63%
    21:00 +24°C° 0 mm 1 mps 762 mmHg 65%
    22:00 +23°C° 0 mm 1 mps 762 mmHg 68%
    23:00 +23°C° 0 mm 1 mps 762 mmHg 67%
    Show more